Date String (YYYY-MM-DD hh:mm:ss) UTC,Instrument flags,absolute air pressure of the measurement (hPa),sample flow rate (lpm),inlet stack bypass flow (lpm),air temperature of the measurement (°C),ambient temperature measured by the external sensor (°C),aerosol sample conditioner tube jacket temperature (°C),OPC LED temperature (°C),internal box temperature (°C),relative humidity of the measurement (%),span deviation,mass concentration of particles derived from Lorenz-Mie calculation of OPC scattering (μg/m³),mass concentration of particles derived from Lorenz-Mie calculation of OPC scattering (μg/m³),mass concentration of particles derived from Lorenz-Mie calculation of OPC scattering (μg/m³)
DateTimeUTC,F1_M11,P_M11,Q1_M11,Q2_M11,T1_M11,T2_M11,T3_M11,T4_M11,T5_M11,U1_M11,ZSPAN_M11,X0_M11,X2_M11,X1_M11
2023-08-12 14:00:00,SystemResetWarning,0833.2,4.99,000.00,029.5,027.8,000.0,038.0,031.1,27.4,0000.0,0009.86,0004.57,0004.01
2023-08-12 14:01:00,SystemResetWarning,0833.2,5.00,000.00,029.5,028.0,000.0,038.0,031.1,27.0,0000.0,0010.24,0004.56,0004.01
2023-08-12 14:02:00,SystemResetWarning,0833.2,5.00,000.00,029.5,028.1,000.0,038.0,031.2,26.6,0000.0,0011.13,0004.59,0004.01
2023-08-12 14:03:00,SystemResetWarning,0833.2,5.01,000.00,029.5,028.2,000.0,038.1,031.2,26.2,0000.0,0010.29,0004.63,0004.01
2023-08-12 14:04:00,SystemResetWarning,0833.2,5.01,000.00,029.6,028.3,000.0,038.1,031.2,27.1,0000.0,0010.00,0004.67,0004.01
2023-08-12 14:05:00,SystemResetWarning,0833.2,4.99,000.00,029.6,028.3,000.0,038.1,031.3,28.9,0000.0,0009.95,0004.68,0004.00
2023-08-12 14:06:00,SystemResetWarning,0833.2,5.00,000.00,029.6,028.4,000.0,038.1,031.3,28.8,0000.0,0009.87,0004.68,0004.01
2023-08-12 14:07:00,SystemResetWarning,0833.2,4.99,000.00,029.7,028.4,000.0,038.1,031.3,28.6,0000.0,0009.85,0004.69,0004.01
2023-08-12 14:08:00,SystemResetWarning,0833.2,5.00,000.00,029.6,026.9,000.0,038.0,031.1,30.1,0000.0,0009.92,0004.69,0004.01
2023-08-12 14:09:00,SystemResetWarning,0833.2,5.00,000.00,029.6,026.0,000.0,037.9,030.9,29.6,0000.0,0010.49,0004.71,0004.01
2023-08-12 14:10:00,SystemResetWarning,0833.2,5.01,000.00,029.5,026.1,000.0,037.9,030.8,29.1,0000.0,0010.46,0004.68,0004.02
2023-08-12 14:11:00,SystemResetWarning,0833.2,5.00,000.00,029.4,026.3,000.0,037.9,030.8,29.3,0000.0,0011.51,0004.70,0004.01
2023-08-12 14:12:00,SystemResetWarning,0833.3,5.00,000.00,029.4,026.7,000.0,038.0,030.8,29.9,0000.0,0011.60,0004.72,0004.00
2023-08-12 14:13:00,SystemResetWarning,0833.3,5.00,000.00,029.4,027.0,000.0,038.0,030.9,30.3,0000.0,0010.58,0004.69,0004.01
2023-08-12 14:14:00,SystemResetWarning,0833.3,5.00,000.00,029.4,027.3,000.0,038.0,031.0,30.4,0000.0,0009.88,0004.62,0004.00
2023-08-12 14:15:00,SystemResetWarning,0833.2,5.00,000.00,029.4,027.5,000.0,038.0,031.1,30.2,0000.0,0009.75,0004.59,0004.01
2023-08-12 14:16:00,SystemResetWarning,0833.3,5.00,000.00,029.4,027.7,000.0,038.0,031.1,29.2,0000.0,0009.62,0004.55,0004.01
2023-08-12 14:17:00,SystemResetWarning,0833.2,5.00,000.00,029.5,027.9,000.0,038.0,031.1,28.3,0000.0,0009.68,0004.57,0004.01
2023-08-12 14:18:00,SystemResetWarning,0833.2,4.99,000.00,029.5,028.0,000.0,038.0,031.2,28.3,0000.0,0009.81,0004.57,0004.01
2023-08-12 14:19:00,SystemResetWarning,0833.3,4.99,000.00,029.5,028.2,000.0,038.1,031.2,29.1,0000.0,0010.12,0004.60,0004.02
2023-08-12 14:20:00,SystemResetWarning,0833.2,5.00,000.00,029.6,028.3,000.0,038.1,031.3,29.2,0000.0,0009.96,0004.58,0004.01
2023-08-12 14:21:00,SystemResetWarning,0833.3,5.00,000.00,029.6,028.3,000.0,038.1,031.3,29.1,0000.0,0010.00,0004.60,0004.00
2023-08-12 14:22:00,SystemResetWarning,0833.3,5.00,000.00,029.6,028.2,000.0,038.1,031.3,28.7,0000.0,0009.35,0004.58,0004.00
2023-08-12 14:23:00,SystemResetWarning,0833.2,5.00,000.00,029.6,026.7,000.0,038.0,031.1,28.1,0000.0,0009.03,0004.58,0004.01
2023-08-12 14:24:00,SystemResetWarning,0833.2,5.00,000.00,029.5,025.9,000.0,037.9,030.9,27.7,0000.0,0009.01,0004.60,0004.00
2023-08-12 14:25:00,SystemResetWarning,0833.2,5.01,000.00,029.5,026.0,000.0,037.9,030.8,28.7,0000.0,0009.09,0004.61,0004.00
2023-08-12 14:26:00,SystemResetWarning,0833.2,5.01,000.00,029.4,026.2,000.0,037.9,030.7,29.1,0000.0,0009.21,0004.65,0004.00
2023-08-12 14:27:00,SystemResetWarning,0833.2,4.99,000.00,029.4,026.6,000.0,037.9,030.8,28.5,0000.0,0010.09,0004.65,0003.99
2023-08-12 14:28:00,SystemResetWarning,0833.2,5.00,000.00,029.4,026.9,000.0,037.9,030.9,28.7,0000.0,0010.00,0004.62,0003.97
2023-08-12 14:29:00,SystemResetWarning,0833.2,5.00,000.00,029.4,027.2,000.0,038.0,030.9,29.0,0000.0,0010.03,0004.66,0003.97
2023-08-12 14:30:00,SystemResetWarning,0833.2,5.01,000.00,029.4,027.4,000.0,038.0,031.0,28.4,0000.0,0009.82,0004.67,0003.95
2023-08-12 14:31:00,SystemResetWarning,0833.2,5.00,000.00,029.4,027.6,000.0,038.0,031.0,28.4,0000.0,0009.54,0004.68,0003.95
2023-08-12 14:32:00,SystemResetWarning,0833.2,5.00,000.00,029.4,027.8,000.0,038.0,031.1,27.8,0000.0,0009.37,0004.66,0003.95
2023-08-12 14:33:00,SystemResetWarning,0833.2,5.00,000.00,029.4,028.0,000.0,038.0,031.1,27.9,0000.0,0009.03,0004.66,0003.94
2023-08-12 14:34:00,SystemResetWarning,0833.2,5.00,000.00,029.5,028.1,000.0,038.0,031.2,27.2,0000.0,0009.15,0004.68,0003.94
2023-08-12 14:35:00,SystemResetWarning,0833.2,5.01,000.00,029.5,028.2,000.0,038.0,031.2,26.3,0000.0,0009.49,0004.67,0003.93
2023-08-12 14:36:00,SystemResetWarning,0833.2,4.99,000.00,029.5,028.3,000.0,038.0,031.2,26.0,0000.0,0009.72,0004.67,0003.92
2023-08-12 14:37:00,SystemResetWarning,0833.2,5.00,000.00,029.6,028.3,000.0,038.1,031.3,26.2,0000.0,0009.73,0004.65,0003.91
2023-08-12 14:38:00,SystemResetWarning,0833.3,4.99,000.00,029.6,027.4,000.0,038.0,031.1,26.4,0000.0,0009.05,0004.64,0003.90
2023-08-12 14:39:00,SystemResetWarning,0833.2,5.00,000.00,029.5,026.0,000.0,037.8,030.8,26.8,0000.0,0009.48,0004.65,0003.88
2023-08-12 14:40:00,SystemResetWarning,0833.2,5.00,000.00,029.5,025.7,000.0,037.8,030.7,25.8,0000.0,0009.78,0004.66,0003.86
2023-08-12 14:41:00,SystemResetWarning,0833.2,5.01,000.00,029.4,026.0,000.0,037.8,030.6,25.6,0000.0,0009.70,0004.61,0003.85
2023-08-12 14:42:00,SystemResetWarning,0833.2,5.01,000.00,029.3,026.3,000.0,037.9,030.7,27.2,0000.0,0009.68,0004.61,0003.84
2023-08-12 14:43:00,SystemResetWarning,0833.2,5.00,000.00,029.3,026.7,000.0,037.9,030.8,26.9,0000.0,0009.62,0004.62,0003.83
2023-08-12 14:44:00,SystemResetWarning,0833.2,5.00,000.00,029.3,027.0,000.0,037.9,030.8,26.9,0000.0,0009.97,0004.62,0003.82
2023-08-12 14:45:00,SystemResetWarning,0833.2,5.00,000.00,029.3,027.2,000.0,037.9,030.9,27.3,0000.0,0009.95,0004.59,0003.81
2023-08-12 14:46:00,SystemResetWarning,0833.2,4.99,000.00,029.3,027.5,000.0,037.9,031.0,26.1,0000.0,0009.75,0004.58,0003.80
2023-08-12 14:47:00,SystemResetWarning,0833.2,5.00,000.00,029.4,027.7,000.0,037.9,031.0,25.3,0000.0,0009.56,0004.59,0003.80
2023-08-12 14:48:00,SystemResetWarning,0833.2,5.00,000.00,029.4,027.9,000.0,037.9,031.1,24.9,0000.0,0009.61,0004.58,0003.79
2023-08-12 14:49:00,SystemResetWarning,0833.2,5.00,000.00,029.4,028.0,000.0,038.0,031.1,25.3,0000.0,0009.77,0004.58,0003.79
2023-08-12 14:50:00,SystemResetWarning,0833.2,5.01,000.00,029.5,028.1,000.0,038.0,031.2,25.7,0000.0,0009.65,0004.59,0003.79
2023-08-12 14:51:00,SystemResetWarning,0833.2,5.00,000.00,029.5,028.2,000.0,038.0,031.2,25.3,0000.0,0009.14,0004.53,0003.81
2023-08-12 14:52:00,SystemResetWarning,0833.2,5.00,000.00,029.5,028.3,000.0,038.0,031.3,24.8,0000.0,0009.11,0004.55,0003.81
2023-08-12 14:53:00,SystemResetWarning,0833.2,4.99,000.00,029.5,027.4,000.0,037.9,031.1,24.6,0000.0,0009.21,0004.58,0003.82
2023-08-12 14:54:00,SystemResetWarning,0833.2,5.00,000.00,029.5,025.9,000.0,037.8,030.8,24.0,0000.0,0009.22,0004.56,0003.81
2023-08-12 14:55:00,SystemResetWarning,0833.2,5.01,000.00,029.4,025.8,000.0,037.7,030.7,24.2,0000.0,0008.86,0004.54,0003.82
2023-08-12 14:56:00,SystemResetWarning,0833.2,5.01,000.00,029.3,026.1,000.0,037.8,030.7,24.4,0000.0,0008.88,0004.52,0003.81
2023-08-12 14:57:00,SystemResetWarning,0833.2,4.99,000.00,029.3,026.4,000.0,037.8,030.7,24.9,0000.0,0008.82,0004.51,0003.81
2023-08-12 14:58:00,SystemResetWarning,0833.2,5.01,000.00,029.3,026.7,000.0,037.9,030.8,24.9,0000.0,0008.64,0004.47,0003.79
2023-08-12 14:59:00,SystemResetWarning,0833.2,5.00,000.00,029.3,027.1,000.0,037.9,030.9,25.3,0000.0,0008.51,0004.44,0003.79
